Temp
7 7 7 7 7 7 6 6 6 7 6 6 6 6 6 6 6 5 5 5 5 5 4 4 3 3 2 0 -1 -1 -2 -3 -3 -3 -3 -3 -4 -4 -4 -4 -4 -4 -4 -4
6 6 7 6 6 6 6 6 6 6 6 6 5 5 5 5 5 5 5 4 4 4 3 3 2 2 1 -1 -1 -2 -4 -4 -3 -3 -3 -4 -4 -4 -4 -4 -4 -4 -4 -5
5 6 5 5 6 6 6 6 6 6 7 6 6 5 5 5 5 5 4 4 4 3 3 2 1 1 -0 -1 -1 -2 -3 -3 -3 -3 -3 -3 -3 -3 -3 -3 -3 -4 -4 -5
5 5 -0 5 6 6 6 6 6 6 6 6 6 5 5 5 5 4 4 3 3 2 2 1 1 0 -0 -1 -2 -2 -3 -3 -3 -3 -3 -3 -3 -3 -3 -3 -3 -4 -5 -6
4 4 5 5 6 6 6 7 6 6 6 6 6 5 5 5 4 4 3 3 2 2 2 1 0 -0 -1 -1 -2 -2 -3 -3 -3 -3 -3 -3 -3 -3 -3 -3 -4 -5 -6 -7
4 4 0 5 6 5 6 6 7 6 6 6 5 5 5 5 5 4 3 3 2 2 1 1 0 -0 -1 -2 -2 -3 -3 -3 -3 -3 -3 -3 -3 -3 -4 -4 -5 -6 -7 -8
3 4 4 5 6 6 5 6 6 6 6 6 5 5 5 4 4 3 3 2 2 1 1 0 -0 -1 -2 -2 -3 -3 -3 -3 -3 -3 -3 -3 -3 -3 -4 -5 -6 -7 -8 -9
2 3 3 4 5 5 5 5 6 5 5 5 5 4 4 4 3 3 3 2 2 1 1 -0 -1 -1 -2 -3 -3 -3 -4 -4 -3 -3 -3 -3 -4 -4 -5 -6 -7 -9 -10 -11
3 3 4 4 4 4 5 5 5 5 5 5 4 4 4 3 3 3 2 2 1 1 0 -1 -1 -2 -2 -3 -3 -4 -4 -3 -3 -3 -3 -4 -4 -5 -6 -7 -8 -10 -11 -12
2 2 3 4 4 4 5 4 4 4 4 5 4 3 3 2 3 2 2 1 1 0 -0 -1 -2 -2 -3 -3 -4 -4 -4 -4 -3 -4 -4 -4 -4 -5 -6 -8 -9 -10 -11 -12
2 1 2 3 3 3 3 4 4 4 4 4 4 3 3 2 2 2 1 1 0 -0 -1 -1 -2 -2 -3 -4 -4 -4 -4 -4 -4 -4 -4 -4 -5 -6 -7 -8 -10 -11 -12 -13
1 1 2 2 3 3 3 3 3 3 3 4 3 3 3 2 2 1 1 1 0 -0 -1 -2 -2 -3 -3 -4 -4 -5 -5 -4 -4 -4 -5 -5 -5 -6 -7 -9 -10 -11 -12 -13
-1 1 1 2 2 3 3 3 3 3 3 3 3 3 2 2 1 1 1 0 -0 -1 -2 -2 -2 -3 -3 -4 -5 -5 -5 -4 -5 -5 -5 -6 -6 -7 -8 -9 -10 -11 -12 -13
-3 -1 0 1 2 2 3 3 2 2 2 2 2 2 2 1 1 1 0 -0 -1 -2 -2 -2 -3 -3 -4 -4 -5 -5 -5 -5 -5 -5 -6 -6 -7 -7 -8 -10 -11 -12 -12 -14
-2 -2 -1 1 1 2 2 2 2 2 2 2 2 2 1 1 1 0 -0 -1 -1 -2 -2 -3 -3 -4 -4 -5 -5 -5 -5 -5 -5 -6 -6 -7 -7 -8 -9 -10 -11 -12 -13 -14
-2 -2 -2 -0 -0 0 1 1 1 1 2 2 2 2 1 1 0 -0 -1 -1 -2 -2 -3 -3 -4 -4 -4 -5 -5 -5 -5 -5 -6 -6 -7 -7 -7 -8 -9 -10 -12 -12 -13 -14
-2 -2 -2 -1 -1 -0 0 1 1 1 1 1 2 1 1 1 -0 -0 -1 -1 -2 -2 -3 -4 -4 -4 -5 -5 -5 -5 -5 -6 -6 -7 -7 -8 -8 -9 -10 -11 -12 -13 -14 -15
-2 -2 -1 -1 -1 -2 -0 -1 -0 -1 -1 0 1 1 1 0 -0 -1 -1 -2 -2 -3 -3 -4 -5 -5 -5 -6 -6 -5 -6 -6 -7 -7 -7 -8 -9 -9 -10 -11 -12 -13 -14 -15
-2 -2 -2 -2 -2 -2 -1 -1 -1 -0 -1 -1 0 0 -0 -1 -1 -1 -2 -2 -3 -3 -4 -5 -5 -5 -6 -6 -6 -6 -6 -6 -7 -7 -8 -8 -9 -10 -11 -12 -13 -14 -15 -16
-2 -3 -2 -2 -2 -2 -3 -1 -1 -1 -1 -1 -0 -1 -1 -1 -2 -2 -2 -3 -4 -4 -4 -5 -5 -6 -6 -6 -6 -6 -7 -7 -7 -8 -8 -9 -10 -11 -11 -12 -13 -14 -15 -16
-3 -3 -3 -2 -2 -3 -3 -1 -0 -0 -1 -1 -1 -1 -2 -2 -3 -4 -4 -4 -4 -4 -5 -6 -6 -7 -7 -6 -7 -7 -7 -7 -8 -8 -9 -9 -10 -11 -12 -13 -14 -15 -16 -16
-3 -3 -2 -2 -2 -2 -2 -1 -1 -1 -1 -1 -1 -1 -2 -2 -3 -4 -5 -6 -5 -6 -6 -7 -7 -8 -8 -7 -7 -7 -7 -8 -8 -9 -10 -10 -11 -12 -13 -14 -15 -16 -16 -17
-3 -3 -2 -2 -2 -2 -2 -2 -1 -1 -1 -1 -1 -2 -3 -3 -3 -3 -5 -6 -6 -6 -7 -7 -7 -8 -7 -7 -8 -8 -8 -8 -9 -10 -10 -11 -11 -13 -14 -15 -15 -16 -17 -18
-3 -3 -2 -2 -2 -2 -1 -1 -1 -1 -1 -1 -1 -2 -3 -3 -3 -4 -5 -6 -7 -7 -7 -7 -8 -9 -7 -7 -8 -8 -8 -9 -9 -10 -11 -11 -12 -13 -15 -15 -16 -17 -18 -18
-4 -3 -2 -2 -1 -1 -2 -2 -2 -2 -2 -1 -2 -3 -3 -3 -4 -4 -5 -6 -6 -7 -7 -7 -9 -8 -8 -8 -8 -8 -9 -10 -10 -11 -12 -12 -13 -14 -15 -16 -17 -18 -18 -19
-4 -3 -3 -2 -1 -1 -2 -2 -2 -2 -2 -2 -3 -3 -3 -3 -4 -4 -5 -7 -7 -7 -7 -8 -9 -8 -8 -8 -8 -9 -10 -11 -11 -12 -12 -13 -14 -15 -16 -17 -17 -18 -19 -19
-5 -4 -3 -2 -1 -2 -3 -3 -3 -3 -3 -3 -3 -3 -3 -3 -4 -5 -6 -7 -7 -7 -8 -10 -8 -8 -9 -9 -9 -10 -11 -12 -12 -12 -13 -14 -15 -16 -16 -17 -18 -19 -19 -20
Height
3114 3116 3118 3119 3122 3123 3124 3125 3126 3125 3126 3128 3129 3131 3133 3135 3136 3137 3137 3137 3137 3136 3135 3134 3133 3133 3133 3134 3136 3138 3138 3138 3137 3136 3135 3133 3130 3126 3122 3117 3112 3105 3098 3091
3110 3111 3113 3113 3116 3118 3119 3120 3121 3122 3121 3123 3123 3127 3128 3131 3132 3132 3133 3134 3134 3133 3131 3130 3129 3130 3130 3131 3133 3134 3133 3133 3133 3132 3130 3128 3125 3120 3115 3110 3104 3097 3090 3082
3105 3107 3109 3107 3109 3111 3114 3115 3117 3117 3119 3119 3119 3121 3124 3125 3127 3128 3129 3130 3129 3128 3127 3126 3126 3126 3127 3129 3129 3130 3130 3130 3129 3128 3125 3122 3118 3113 3108 3103 3096 3090 3082 3075
3102 3105 3103 3102 3104 3107 3108 3110 3112 3113 3114 3116 3117 3118 3119 3121 3123 3124 3125 3126 3125 3124 3124 3124 3124 3124 3125 3126 3126 3127 3127 3126 3125 3123 3120 3116 3112 3106 3100 3095 3089 3082 3075 3067
3097 3097 3097 3096 3099 3101 3101 3102 3106 3107 3110 3110 3111 3113 3114 3116 3117 3119 3122 3122 3121 3122 3122 3122 3122 3123 3123 3123 3124 3123 3123 3122 3120 3117 3114 3110 3105 3100 3095 3088 3081 3074 3068 3061
3091 3090 3090 3092 3097 3099 3098 3096 3099 3101 3103 3105 3106 3105 3108 3110 3112 3115 3117 3117 3118 3119 3119 3119 3120 3121 3121 3121 3120 3119 3118 3116 3114 3112 3108 3104 3099 3094 3088 3082 3075 3068 3061 3054
3086 3086 3084 3089 3093 3094 3095 3096 3094 3097 3098 3099 3101 3103 3105 3106 3109 3111 3112 3112 3113 3114 3115 3116 3116 3117 3117 3117 3116 3115 3113 3111 3109 3107 3103 3099 3094 3088 3083 3076 3069 3062 3056 3049
3082 3082 3082 3086 3090 3089 3091 3091 3092 3093 3094 3094 3096 3098 3100 3103 3105 3106 3107 3108 3110 3111 3111 3112 3113 3113 3113 3113 3112 3111 3109 3107 3104 3101 3097 3093 3088 3083 3077 3070 3064 3057 3051 3045
3075 3073 3080 3080 3083 3085 3086 3087 3088 3089 3090 3090 3092 3094 3097 3099 3100 3102 3104 3106 3106 3107 3108 3109 3109 3109 3109 3109 3108 3106 3104 3101 3098 3095 3091 3087 3083 3077 3071 3065 3059 3053 3047 3042
3066 3070 3074 3078 3079 3081 3081 3083 3084 3086 3086 3087 3088 3090 3092 3094 3096 3098 3100 3101 3102 3103 3105 3105 3106 3106 3105 3105 3103 3101 3098 3095 3092 3089 3085 3081 3077 3071 3066 3061 3055 3049 3044 3038
3058 3065 3070 3071 3072 3073 3076 3077 3079 3081 3082 3083 3084 3086 3088 3090 3092 3093 3095 3096 3098 3099 3100 3101 3101 3101 3101 3100 3098 3095 3093 3090 3087 3083 3079 3076 3071 3066 3061 3055 3050 3045 3039 3034
3055 3059 3059 3063 3065 3068 3069 3070 3074 3076 3076 3077 3079 3082 3084 3086 3087 3089 3090 3092 3094 3095 3096 3097 3097 3097 3096 3095 3093 3090 3087 3084 3081 3077 3074 3070 3066 3060 3056 3050 3045 3039 3034 3029
3048 3049 3051 3055 3059 3063 3064 3066 3069 3071 3072 3073 3076 3078 3080 3082 3083 3084 3086 3088 3089 3091 3092 3092 3092 3092 3092 3090 3088 3086 3083 3079 3075 3072 3069 3065 3062 3056 3051 3044 3039 3034 3029 3024
3041 3043 3047 3049 3052 3054 3058 3060 3063 3067 3068 3069 3072 3074 3076 3078 3079 3081 3082 3084 3085 3086 3087 3087 3088 3087 3086 3085 3083 3081 3078 3074 3070 3067 3063 3059 3056 3051 3046 3040 3034 3029 3024 3020
3036 3038 3040 3042 3046 3048 3052 3054 3058 3062 3064 3066 3068 3070 3072 3073 3075 3077 3078 3080 3081 3082 3083 3083 3083 3083 3082 3080 3078 3075 3072 3069 3066 3062 3058 3054 3051 3046 3040 3034 3029 3023 3018 3013
3031 3031 3034 3036 3040 3044 3047 3049 3053 3056 3060 3062 3064 3065 3067 3069 3071 3073 3074 3076 3077 3078 3078 3078 3079 3078 3077 3075 3074 3071 3067 3065 3061 3057 3052 3048 3045 3040 3034 3028 3023 3018 3013 3008
3022 3026 3027 3029 3033 3036 3040 3043 3047 3051 3055 3059 3060 3061 3063 3064 3066 3068 3070 3071 3072 3073 3073 3074 3074 3073 3072 3070 3068 3066 3063 3060 3056 3051 3047 3043 3039 3034 3028 3023 3017 3013 3007 3003
3016 3018 3020 3022 3026 3029 3032 3034 3037 3041 3048 3054 3055 3057 3058 3060 3062 3064 3066 3067 3067 3068 3068 3068 3068 3067 3066 3065 3062 3061 3058 3055 3051 3046 3042 3038 3033 3028 3022 3017 3012 3007 3002 2997
3006 3009 3011 3013 3017 3021 3023 3027 3033 3036 3041 3046 3050 3052 3053 3054 3056 3059 3060 3061 3062 3063 3063 3063 3062 3062 3060 3059 3056 3055 3052 3049 3045 3041 3036 3032 3028 3022 3017 3011 3006 3002 2997 2992
2999 3002 3004 3007 3010 3012 3016 3021 3025 3029 3035 3040 3043 3045 3047 3048 3050 3052 3054 3055 3057 3057 3056 3057 3057 3056 3055 3053 3051 3049 3046 3044 3040 3035 3030 3026 3022 3017 3011 3006 3001 2997 2991 2986
2993 2995 2997 2998 3001 3005 3008 3015 3018 3022 3028 3033 3037 3039 3041 3042 3042 3045 3047 3049 3051 3051 3051 3051 3051 3050 3049 3047 3045 3043 3040 3038 3034 3030 3025 3020 3016 3011 3006 3001 2997 2992 2986 2981
2988 2989 2990 2991 2994 2997 3002 3008 3011 3015 3020 3024 3028 3031 3033 3035 3036 3037 3039 3041 3043 3044 3044 3045 3045 3044 3043 3042 3040 3038 3035 3033 3029 3024 3019 3015 3011 3005 3000 2996 2991 2986 2981 2976
2980 2981 2982 2985 2986 2989 2992 2997 3002 3008 3012 3017 3021 3024 3026 3028 3029 3029 3031 3034 3035 3036 3038 3039 3039 3038 3039 3037 3035 3032 3029 3028 3024 3019 3013 3010 3005 3000 2995 2991 2987 2981 2976 2971
2973 2974 2975 2976 2979 2980 2982 2987 2994 2999 3004 3009 3013 3016 3017 3020 3022 3022 3022 3024 3027 3030 3032 3032 3032 3033 3034 3032 3030 3027 3025 3023 3018 3013 3008 3005 3000 2995 2990 2987 2982 2977 2971 2966
2965 2965 2966 2967 2970 2972 2975 2979 2986 2991 2995 3000 3003 3006 3010 3012 3014 3015 3016 3018 3021 3024 3025 3025 3027 3029 3028 3027 3024 3022 3020 3017 3012 3007 3003 2999 2995 2990 2986 2982 2977 2972 2967 2962
2958 2958 2958 2959 2961 2965 2969 2974 2979 2983 2988 2992 2994 2999 3003 3005 3006 3007 3007 3012 3015 3017 3018 3019 3022 3023 3023 3021 3019 3018 3015 3011 3007 3002 2999 2995 2990 2987 2983 2978 2972 2967 2962 2958
2950 2950 2949 2951 2953 2956 2960 2966 2971 2976 2980 2984 2989 2994 2995 2997 2998 3000 3003 3007 3009 3011 3012 3015 3017 3018 3017 3016 3015 3013 3010 3006 3002 2998 2995 2991 2987 2983 2979 2974 2969 2963 2958 2954
Wind_Speed
30 26 22 21 22 25 26 25 26 28 27 24 21 17 17 20 21 22 26 24 21 19 18 13 8 6 7 9 15 21 22 21 20 22 26 30 33 32 34 37 39 42 43 43
24 22 22 24 21 20 19 19 21 22 24 17 15 18 20 22 23 23 23 21 18 17 14 9 7 5 5 8 12 16 17 18 22 27 26 27 29 32 35 37 40 40 41 42
18 20 20 23 28 27 23 22 20 20 18 13 12 15 19 21 21 19 20 17 16 14 10 8 6 6 7 9 12 14 16 18 19 21 24 26 29 32 36 37 38 40 40 40
10 16 6 20 28 30 30 28 24 22 21 18 18 16 17 17 17 17 16 15 14 10 9 8 7 8 10 10 11 13 15 17 19 21 24 27 30 33 35 37 38 38 39 39
11 18 16 13 23 25 26 26 23 28 23 20 19 18 20 20 20 19 17 15 12 11 10 9 9 10 11 12 13 15 16 17 19 22 25 27 31 32 34 36 38 38 38 38
18 8 8 20 17 19 22 24 22 20 21 20 19 22 18 20 20 17 15 13 11 11 11 10 10 11 12 13 14 15 16 18 20 22 25 28 30 31 33 35 37 37 37 37
27 16 10 13 14 19 22 23 8 15 16 24 22 12 9 12 17 18 14 12 12 12 11 11 11 12 12 13 13 15 17 19 21 22 25 27 29 32 33 35 36 36 36 35
30 22 16 8 20 21 15 20 12 14 12 14 11 9 9 12 13 13 13 12 12 12 11 11 12 13 13 13 14 16 17 19 21 23 25 27 29 31 33 34 34 34 34 34
24 34 10 13 26 21 22 22 20 15 14 10 10 10 9 12 12 12 13 13 12 12 12 13 13 13 13 14 15 16 18 19 21 24 26 27 29 31 32 32 32 32 31 31
25 22 26 29 30 19 16 17 17 15 10 12 11 11 12 14 12 13 12 12 12 14 13 13 13 13 14 14 15 17 17 19 22 24 26 28 30 31 32 31 31 30 29 30
40 35 31 23 27 24 26 27 21 19 16 13 14 12 13 13 13 12 12 12 13 14 13 13 14 14 14 15 15 16 17 19 22 23 26 29 30 32 32 31 30 29 29 29
20 29 32 34 36 24 21 24 24 18 17 16 15 14 14 13 12 12 11 12 13 13 13 13 14 15 15 16 17 17 18 19 21 23 25 28 31 32 32 31 30 30 30 29
16 19 19 24 31 26 15 13 15 11 12 14 14 15 15 14 12 12 13 14 14 14 14 14 14 16 17 17 18 18 19 19 20 22 25 28 30 31 32 32 31 31 31 30
27 23 21 20 18 28 24 17 17 14 12 14 15 17 15 13 14 14 14 14 15 14 14 15 15 15 17 18 19 19 21 21 20 22 24 27 30 31 31 30 30 31 31 29
20 28 30 29 21 25 26 22 19 17 15 12 15 15 15 13 14 15 15 15 16 16 16 16 14 16 17 18 20 20 21 21 21 22 24 27 30 31 30 30 31 31 31 30
21 26 30 32 32 21 27 28 24 22 18 14 12 13 13 16 17 17 17 17 17 16 17 17 15 17 18 18 20 21 21 21 22 23 24 27 30 31 31 31 31 31 31 30
24 23 22 27 33 37 28 27 24 18 18 14 14 12 13 16 19 21 20 20 20 18 17 17 17 17 18 18 20 21 20 20 22 23 26 27 30 31 30 30 31 31 31 29
24 22 24 28 27 31 36 26 25 19 16 15 16 14 15 16 18 19 19 21 20 18 18 17 17 17 17 18 20 21 20 21 22 23 26 28 29 30 30 31 31 30 31 30
23 24 25 30 21 33 26 27 25 23 22 18 17 18 16 17 18 20 22 23 20 19 19 18 18 18 18 19 20 20 20 22 23 24 26 27 29 29 30 31 31 30 30 29
19 18 21 26 29 29 25 27 31 27 25 23 20 17 19 17 18 21 22 23 21 22 21 19 19 18 18 20 20 20 20 22 23 24 25 27 28 29 30 31 31 31 30 28
18 16 15 22 28 30 34 37 32 32 26 25 19 15 17 20 22 23 25 24 22 21 20 20 18 18 20 21 20 19 20 22 23 24 25 27 28 28 29 30 31 30 29 28
20 20 18 20 27 29 36 38 32 31 28 26 23 22 24 27 25 26 27 25 24 24 24 21 21 18 19 21 20 19 19 22 23 23 24 26 27 29 29 30 31 30 29 28
16 20 20 21 22 26 29 36 36 32 29 27 25 23 26 30 28 30 30 27 27 26 24 24 21 15 19 20 19 18 19 22 23 23 24 26 27 28 28 29 30 29 28 27
22 20 21 27 24 27 29 36 38 36 34 31 29 28 30 29 29 33 30 28 27 25 25 23 16 13 20 19 18 18 19 21 21 22 23 25 27 27 28 29 29 28 27 26
26 25 23 22 26 28 23 28 36 34 35 36 36 34 30 31 29 28 28 29 27 24 23 19 10 16 17 16 17 18 18 19 20 21 22 25 26 27 27 28 27 27 26 25
22 23 20 22 26 27 23 24 32 33 34 37 34 32 31 32 33 35 33 26 27 25 20 11 11 16 14 15 16 16 16 17 18 20 22 24 25 26 27 27 27 26 25 25
23 24 21 22 27 28 28 24 22 31 31 26 25 26 31 35 36 36 29 27 25 21 12 8 14 13 12 13 14 13 14 15 18 20 22 24 25 26 27 27 26 26 25 25
Wind_Direction
234 233 234 239 243 247 247 252 254 268 269 278 269 252 233 235 241 261 271 278 284 298 300 290 268 253 232 226 241 251 260 272 278 281 281 283 288 294 298 303 306 307 309 313
228 229 238 244 238 237 243 254 259 263 268 279 260 228 223 233 256 264 268 266 281 292 288 274 278 259 242 239 247 255 264 270 268 275 280 287 294 301 306 308 310 313 317 318
235 240 228 233 224 224 241 250 258 260 278 276 271 254 251 252 255 260 263 268 285 282 268 274 265 261 254 251 255 259 263 266 273 281 289 298 306 309 309 312 316 318 319 320
238 233 241 243 246 242 249 254 256 263 273 271 265 272 259 256 251 254 258 274 276 257 260 261 263 258 252 252 258 262 268 275 284 294 303 309 311 312 315 319 320 320 323 325
206 227 245 245 238 240 241 253 257 255 261 258 260 260 254 250 239 240 249 263 243 248 255 255 248 247 252 259 266 271 278 288 298 304 310 313 314 316 319 321 323 326 327 328
215 219 208 252 239 244 250 254 257 256 250 251 270 267 278 252 244 240 252 248 235 250 251 243 243 251 257 263 270 279 288 296 304 311 314 316 317 320 323 325 326 328 329 330
229 232 239 220 246 235 230 256 251 259 260 256 267 269 257 249 238 236 245 234 248 253 248 245 253 257 261 268 276 286 294 303 310 314 318 319 322 325 326 328 329 330 331 331
224 230 244 232 229 223 245 239 249 272 272 268 241 235 242 240 243 250 245 248 247 248 242 247 255 262 267 274 282 289 299 308 313 319 323 324 325 327 328 331 331 330 330 330
228 235 234 242 238 240 247 257 268 261 273 243 228 229 249 255 257 244 240 241 240 235 235 246 256 261 268 276 285 292 305 313 319 324 325 327 328 330 331 332 331 330 328 328
218 231 237 240 256 254 258 272 258 261 245 239 235 232 237 251 234 250 243 239 231 228 237 246 255 260 270 280 288 299 311 319 324 325 327 328 329 331 331 331 329 329 328 325
243 245 254 246 249 255 251 255 252 274 261 249 234 232 232 234 254 244 238 233 231 231 241 250 258 267 277 284 292 305 313 320 323 326 328 328 329 331 331 330 329 329 327 323
227 230 232 237 245 247 242 238 249 257 253 233 227 228 227 249 248 238 233 233 236 240 248 257 263 273 280 287 299 306 311 319 324 327 329 329 329 331 330 329 328 328 326 324
222 209 215 227 241 232 234 226 228 248 240 226 226 227 233 250 240 236 232 228 233 240 250 262 268 281 287 292 300 305 311 317 324 327 328 328 329 330 328 329 327 326 325 323
232 233 221 221 229 228 225 215 221 248 254 228 227 226 233 242 234 231 227 227 232 241 251 262 270 281 289 296 300 306 311 316 323 326 327 328 328 328 328 327 325 324 324 321
229 236 234 226 224 218 211 212 226 240 251 255 238 239 241 246 238 230 227 231 236 241 253 262 270 282 287 295 300 305 310 315 321 324 326 328 326 326 328 327 326 325 323 322
243 250 239 232 225 220 220 219 221 231 248 253 243 244 244 241 231 226 226 229 237 243 252 261 271 280 287 295 299 304 309 313 319 322 325 326 326 326 329 327 326 325 321 320
259 259 252 256 230 227 221 217 216 233 236 250 241 245 250 244 236 231 227 230 235 243 254 261 269 279 287 296 300 304 308 312 317 321 323 326 326 326 327 327 327 324 319 320
255 247 250 247 241 228 220 217 202 212 227 245 244 258 260 251 238 235 233 234 238 246 255 261 271 280 288 296 300 305 308 312 315 320 323 326 325 326 328 328 327 324 320 321
229 235 241 238 242 216 206 209 209 222 235 248 258 265 266 255 239 232 232 236 238 246 255 262 272 281 290 295 300 305 309 312 316 320 322 325 324 326 328 328 327 325 322 321
225 253 252 254 226 241 234 220 211 219 233 241 254 264 267 262 246 239 238 241 239 246 257 265 274 284 292 297 301 303 308 311 317 318 323 324 325 327 329 329 327 325 324 323
229 232 241 234 231 227 228 228 222 215 214 226 241 258 251 254 246 233 239 246 245 252 257 263 273 282 291 295 298 301 308 312 316 319 323 324 326 328 330 329 327 326 326 325
248 252 249 231 228 229 227 225 220 219 220 223 232 241 241 247 251 240 235 236 235 243 251 259 266 275 287 291 293 299 309 312 314 319 324 327 327 330 331 330 328 327 328 326
254 252 246 245 244 241 236 228 226 226 226 226 229 240 251 251 253 249 236 236 238 244 250 261 265 277 287 287 291 301 311 312 314 321 328 329 330 332 332 330 329 329 328 327
262 271 271 257 253 250 245 228 226 223 229 227 228 242 248 248 254 248 228 225 231 238 252 256 262 282 283 285 293 306 311 313 317 327 330 331 334 334 334 332 330 331 330 330
283 277 277 264 248 244 240 227 224 228 227 226 231 236 243 245 251 242 237 235 236 243 248 252 265 276 277 286 297 307 310 314 323 332 334 336 338 338 337 334 334 332 332 331
284 280 269 257 238 228 223 225 232 234 231 233 234 238 246 250 249 253 240 224 231 241 243 246 268 270 277 288 300 305 312 322 334 340 342 344 344 341 338 338 337 335 334 332
272 285 271 255 227 211 215 218 229 232 232 229 232 245 250 254 253 250 230 221 228 232 230 253 262 267 279 293 298 307 323 339 348 351 352 352 348 345 342 341 339 338 336 333